Location: ????
(30.1475°N, 31.1342°E)
Time: 08:32:26
(UTC+00:00)

Meteor 1-14 Rocket - Pass Details

Date: 29 March 2023
Orbit: 834 x 918 km, 81.3° (Epoch: 03 June)

Event Time Altitude Azimuth Distance (km) Brightness Sun altitude
Rises 00:25:40 0° 21° (NNE) 3,388 8.0 -41.9°
Reaches altitude 10° 00:30:38 10° 60° (ENE) 2,460 7.3 -41.0°
Maximum altitude 00:31:40 11° 71° (ENE) 2,427 7.2 -40.9°
Drops below altitude 10° 00:32:43 10° 82° (E) 2,465 7.2 -40.7°
Sets 00:37:41 0° 121° (ESE) 3,415 7.6 -39.8°
